Weather History for KOGA - January, 2013

Change the Weather History Date:

Tuesday, January 8, 2013

  Actual Average Record
Temperature  
Mean Temperature 31 °F -  
Max Temperature 50 °F 31 °F 66 °F (2002)
Min Temperature 12 °F 6 °F -17 °F (1973)
Degree Days  
Heating Degree Days 34    
Moisture  
Dew Point 22 °F    
Average Humidity 72    
Maximum Humidity 91    
Minimum Humidity 44    
Precipitation  
Precipitation 0.00 in - - ()
Sea Level Pressure  
Sea Level Pressure 29.94 in    
Wind  
Wind Speed 6 mph (WNW)    
Max Wind Speed 20 mph    
Max Gust Speed 26 mph    
Visibility 10 miles    
Events      
Averages and records for this station are not official NWS values.
T = Trace of Precipitation, MM = Missing Value Source: NWS Daily Summary

Daily Weather History Graph

Daily Weather History Graph

Search for Another Location

Airport or City:

Trip Planner

Search our weather history database for the weather conditions in past years. The results will help you decide how hot, cold, wet, or windy it might be!

Date:

Astronomy

Jan. 08, 2013 Rise Set
Actual Time 7:12 AM MST 4:36 PM MST
Civil Twilight 6:41 AM MST 5:06 PM MST
Nautical Twilight 6:07 AM MST 5:41 PM MST
Astronomical Twilight 5:33 AM MST 6:14 PM MST
Moon 3:47 AM MST (1/8) 1:40 PM MST (1/8)
Length of Visible Light 10h 25m
Length of Day
9h 23m
Waning Crescent, 13% of the Moon is Illuminated
Jan 8
Waning Crescent
Jan 11
New
Jan 18
First Quarter
Jan 26
Full
Feb 3
Last Quarter

Hourly Weather History & Observations

Time (MST) Temp. Windchill Dew Point Humidity Pressure Visibility Wind Dir Wind Speed Gust Speed Precip Events Conditions
12:15 AM 15.8 °F 8.6 °F 13.5 °F 90% 29.81 in 10.0 mi WNW 4.6 mph - N/A   Clear
12:35 AM 17.6 °F - 15.3 °F 91% 29.80 in 10.0 mi Calm Calm - N/A   Clear
12:55 AM 17.1 °F - 14.4 °F 89% 29.80 in 10.0 mi Calm Calm - N/A   Clear
1:15 AM 14.9 °F - 12.0 °F 88% 29.80 in 10.0 mi Calm Calm - N/A   Clear
1:35 AM 15.3 °F - 12.9 °F 90% 29.80 in 10.0 mi Calm Calm - N/A   Clear
1:55 AM 14.5 °F - 12.2 °F 90% 29.80 in 10.0 mi Calm Calm - N/A   Clear
2:15 AM 14.5 °F - 11.8 °F 89% 29.80 in 10.0 mi Calm Calm - N/A   Clear
2:35 AM 12.4 °F - 9.5 °F 88% 29.79 in 10.0 mi Calm Calm - N/A   Clear
2:55 AM 14.0 °F - 11.5 °F 90% 29.79 in 10.0 mi Calm Calm - N/A   Clear
3:15 AM 12.0 °F 5.9 °F 9.1 °F 88% 29.79 in 10.0 mi West 3.5 mph - N/A   Clear
3:35 AM 12.0 °F - 9.1 °F 88% 29.78 in 10.0 mi Calm Calm - N/A   Clear
3:55 AM 12.6 °F 4.8 °F 9.7 °F 88% 29.78 in 10.0 mi West 4.6 mph - N/A   Clear
4:15 AM 13.6 °F 7.7 °F 11.1 °F 90% 29.77 in 10.0 mi WSW 3.5 mph - N/A   Clear
4:35 AM 14.9 °F 7.5 °F 12.0 °F 88% 29.77 in 10.0 mi WNW 4.6 mph - N/A   Clear
5:15 AM 17.6 °F 8.2 °F 14.5 °F 88% 29.77 in 10.0 mi WSW 6.9 mph - N/A   Clear
5:35 AM 18.3 °F 13.1 °F 15.1 °F 87% 29.77 in 10.0 mi WSW 3.5 mph - N/A   Clear
5:55 AM 19.0 °F 11.1 °F 15.8 °F 87% 29.78 in 10.0 mi WSW 5.8 mph - N/A   Clear
6:35 AM 19.4 °F 14.3 °F 15.6 °F 85% 29.79 in 10.0 mi West 3.5 mph - N/A   Clear
6:55 AM 20.1 °F - 16.3 °F 85% 29.80 in 10.0 mi Calm Calm - N/A   Clear
7:15 AM 21.4 °F 15.1 °F 17.2 °F 84% 29.81 in 10.0 mi West 4.6 mph - N/A   Clear
7:35 AM 25.0 °F 20.7 °F 18.9 °F 78% 29.82 in 10.0 mi West 3.5 mph - N/A   Clear
7:55 AM 36.7 °F 26.6 °F 25.0 °F 63% 29.83 in 10.0 mi NW 18.4 mph - N/A   Clear
8:15 AM 37.4 °F 28.9 °F 25.7 °F 63% 29.84 in 10.0 mi NW 13.8 mph - N/A   Clear
8:35 AM 37.8 °F 29.8 °F 25.5 °F 61% 29.85 in 10.0 mi WNW 12.7 mph - N/A   Clear
8:55 AM 37.4 °F - 26.6 °F 65% 29.85 in 10.0 mi Calm Calm - N/A   Clear
9:15 AM 40.6 °F 32.7 °F 26.8 °F 58% 29.85 in 10.0 mi WNW 15.0 mph 18.4 mph N/A   Clear
9:35 AM 42.6 °F 34.9 °F 27.1 °F 54% 29.85 in 10.0 mi NW 16.1 mph 21.9 mph N/A   Clear
9:55 AM 41.9 °F 34.3 °F 27.3 °F 56% 29.88 in 10.0 mi NW 15.0 mph - N/A   Clear
10:15 AM 43.2 °F 35.3 °F 27.0 °F 53% 29.88 in 10.0 mi NW 17.3 mph 21.9 mph N/A   Clear
10:35 AM 43.0 °F 34.8 °F 27.1 °F 54% 29.88 in 10.0 mi NW 18.4 mph - N/A   Clear
10:55 AM 41.7 °F 33.7 °F 26.8 °F 55% 29.88 in 10.0 mi NW 16.1 mph - N/A   Clear
11:15 AM 45.5 °F 37.8 °F 27.1 °F 49% 29.88 in 10.0 mi NW 19.6 mph 25.3 mph N/A   Clear
11:35 AM 46.8 °F - 27.5 °F 47% 29.88 in 10.0 mi NW 18.4 mph 25.3 mph N/A   Clear
11:55 AM 47.3 °F - 26.6 °F 45% 29.88 in 10.0 mi NW 18.4 mph 26.5 mph N/A   Clear
12:15 PM 48.2 °F - 27.7 °F 45% 29.88 in 10.0 mi NW 19.6 mph - N/A   Clear
12:55 PM 48.6 °F - 27.9 °F 45% 29.89 in 10.0 mi NW 18.4 mph 21.9 mph N/A   Clear
1:15 PM 49.1 °F - 28.0 °F 44% 29.90 in 10.0 mi NW 18.4 mph 24.2 mph N/A   Clear
1:35 PM 49.5 °F - 28.2 °F 44% 29.91 in 10.0 mi NW 17.3 mph 21.9 mph N/A   Clear
1:55 PM 50.0 °F - 28.6 °F 44% 29.92 in 10.0 mi NW 11.5 mph - N/A   Clear
2:15 PM 50.0 °F - 28.9 °F 44% 29.93 in 10.0 mi NW 13.8 mph - N/A   Clear
2:35 PM 49.5 °F - 29.7 °F 47% 29.95 in 10.0 mi NNW 10.4 mph - N/A   Clear
2:55 PM 49.1 °F - 27.7 °F 44% 29.95 in 10.0 mi NNW 10.4 mph 18.4 mph N/A   Clear
3:15 PM 48.2 °F - 28.8 °F 47% 29.98 in 10.0 mi North 10.4 mph - N/A   Clear
3:35 PM 46.8 °F - 29.1 °F 50% 29.99 in 10.0 mi NNW 5.8 mph - N/A   Clear
3:55 PM 44.8 °F 41.6 °F 30.2 °F 57% 30.00 in 10.0 mi NNW 5.8 mph - N/A   Clear
4:15 PM 43.0 °F 40.3 °F 29.1 °F 58% 30.00 in 10.0 mi NNW 4.6 mph - N/A   Clear
4:35 PM 39.9 °F 36.7 °F 28.4 °F 63% 30.02 in 10.0 mi NNW 4.6 mph - N/A   Clear
4:55 PM 34.3 °F 31.4 °F 27.0 °F 74% 30.02 in 10.0 mi NW 3.5 mph - N/A   Clear
5:15 PM 33.8 °F 28.6 °F 27.1 °F 77% 30.04 in 10.0 mi WNW 5.8 mph - N/A   Clear
5:35 PM 31.6 °F 27.0 °F 25.3 °F 78% 30.04 in 10.0 mi WSW 4.6 mph - N/A   Clear
5:55 PM 30.9 °F 26.2 °F 25.7 °F 81% 30.06 in 10.0 mi WSW 4.6 mph - N/A   Clear
6:15 PM 30.6 °F 24.7 °F 25.5 °F 82% 30.07 in 10.0 mi West 5.8 mph - N/A   Clear
6:35 PM 29.8 °F 23.9 °F 25.7 °F 85% 30.08 in 10.0 mi West 5.8 mph - N/A   Clear
6:55 PM 29.3 °F 24.3 °F 25.3 °F 85% 30.09 in 10.0 mi West 4.6 mph - N/A   Clear
7:15 PM 29.5 °F - 25.2 °F 84% 30.09 in 10.0 mi Calm Calm - N/A   Clear
7:35 PM 28.4 °F - 24.3 °F 84% 30.11 in 10.0 mi Calm Calm - N/A   Clear
7:55 PM 26.8 °F 22.8 °F 23.5 °F 88% 30.11 in 10.0 mi NW 3.5 mph - N/A   Clear
8:15 PM 27.5 °F 22.2 °F 24.8 °F 90% 30.13 in 10.0 mi South 4.6 mph - N/A   Clear
8:35 PM 30.9 °F 26.2 °F 26.2 °F 83% 30.14 in 10.0 mi West 4.6 mph - N/A   Clear
8:55 PM 27.0 °F 18.0 °F 22.8 °F 84% 30.15 in 10.0 mi NW 9.2 mph - N/A   Clear
9:15 PM 32.7 °F 23.4 °F 26.4 °F 78% 30.15 in 10.0 mi NNW 12.7 mph - N/A   Clear
9:35 PM 32.2 °F 23.2 °F 25.7 °F 77% 30.16 in 10.0 mi NW 11.5 mph - N/A   Clear
9:55 PM 32.0 °F 22.1 °F 25.5 °F 77% 30.16 in 10.0 mi NNW 13.8 mph - N/A   Clear
10:15 PM 32.2 °F 27.7 °F 25.5 °F 76% 30.18 in 10.0 mi South 4.6 mph - N/A   Clear
10:55 PM 33.1 °F 26.1 °F 25.7 °F 74% 30.19 in 10.0 mi NW 8.1 mph - N/A   Clear
11:15 PM 31.8 °F - 25.0 °F 76% 30.21 in 10.0 mi Calm Calm - N/A   Clear
11:35 PM 30.9 °F 27.5 °F 24.6 °F 77% 30.22 in 10.0 mi NW 3.5 mph - N/A   Clear
11:55 PM 29.3 °F - 24.3 °F 81% 30.22 in 10.0 mi Calm Calm - N/A   Clear